Weather in Ribnitsa

Moldova     47˚45′55″N   29˚00′27″E
temp.,
°C
wind,
m/s
gust,
m/s
humid.,
%
clouds,
%
prec.,
mm/h
press.,
hPa
HPBL,
m
1 december, tue
tue123:00n3774100 0.0 1027497
02:00−1˚n477799 0.0 1027394
05:00−1˚n598082 0.0 1026395
08:00−1˚n597890 0.0 1026480
11:00nne588095 0.1 1026528
14:00+1˚nne578997 0.3 1025505
17:00nne479695 0.3 1025422
20:00ne369593 0.4 1025337
2 december, wed
wed223:00n2497100 0.1 1025191
02:00+1˚n2497100 0.4 1026195
05:00+1˚nne2397100 0.2 1025171
08:00+1˚ne1297100 0.3 1026124
11:00+1˚ene1296100 0.1 1026139
14:00+1˚ne1296100 0.3 1025156
17:00+1˚ene1293100 0.1 1025189
20:00+1˚nne119699 0.2 1025101
3 december, thu
thu323:00wsw119795 0.0 102558
02:00+1˚w119293 0.0 102567
05:00ssw118977 0.0 102438
08:00−1˚se229346 0.0 102429
11:00+1˚sse468187 0.0 1024421
14:00+3˚sse477570 0.0 1023579
17:00+2˚se5989100 0.0 1022392
20:00+4˚se61191100 0.0 1022449
4 december, fri
fri423:00+5˚se71490100 0.1 1021476
02:00+4˚se61389100 0.1 1020502
05:00+4˚se7158776 0.0 1019423
08:00+3˚se7158549 0.0 1019403
11:00+6˚se8147890 0.0 1019608
14:00+7˚se8127571 0.0 1017661
17:00+6˚ese7128475 0.0 1017516
20:00+6˚se8148986 0.0 1018587
5 december, sat
sat523:00+6˚se71290100 0.0 1018524
02:00+6˚se81395100 0.1 1017512
05:00+6˚ese81395100 0.5 1016434
08:00+6˚se81495100 0.6 1017500
11:00+8˚se81389100 0.0 1018670
14:00+9˚se81282100 0.0 1018676
17:00+7˚se8158691 0.0 1018507
20:00+6˚se8168895 0.0 1019481